Weather observations for the past three days for
Claremore, Claremore Regional Airport
Imperial (Metric)
Date Time (cdt) Wind (mph) Vis. (mi.) Weather Sky Cond. Temperature (ºF) Relative Humidity Wind Chill (°F) Heat Index (°F) Pressure Precipitation (in)
Air Dwpt 6 hour altimeter (in) sea level (mb) 1 hr 3 hr 6 hr
Max. Min.
21 08:15 S 6 8.00 Mostly Cloudy BKN004 BKN012 BKN060 71.6 71.6 100% 30.06 0.0
21 07:55 Calm 6.00 Fog/Mist BKN003 BKN060 69.8 69.8 100% 30.05 0.0
21 07:35 Calm 5.00 Fog/Mist SCT004 BKN050 BKN095 69.8 69.8 100% 30.05 0.0
21 07:15 Calm 6.00 Fog/Mist FEW050 SCT095 69.8 69.8 100% 30.05 0.0
21 06:55 S 5 7.00 Fair CLR 69.8 69.8 100% 30.05 0.0
21 06:35 S 7 G 14 8.00 Partly Cloudy FEW006 FEW027 SCT038 69.8 69.8 100% 30.04 0.0
21 06:15 S 8 10.00 Mostly Cloudy FEW021 SCT027 BKN038 69.8 69.8 100% 30.05 0.0
21 05:35 S 8 G 15 10.00 A Few Clouds FEW120 69.8 69.8 100% 30.03 0.0
21 05:15 S 8 10.00 Thunderstorm in Vicinity BKN120 69.8 69.8 100% 30.03 0.0
21 04:55 S 5 10.00 Thunderstorm in Vicinity FEW055 FEW075 SCT095 69.8 69.8 100% 30.02 0.0 0.05
21 04:35 SE 5 8.00 Light Rain FEW047 FEW075 SCT110 69.8 69.8 100% 30.02 0.0
21 04:15 E 7 G 15 6.00 Thunderstorm in Vicinity Rain Fog/Mist SCT036 SCT048 SCT070 69.8 69.8 100% 30.02 0.0
21 03:55 SE 14 4.00 Thunderstorm in Vicinity Rain Fog/Mist FEW004 BKN036 OVC047 71.6 71.6 100% 30.03 0.0 1.46
21 03:35 E 9 0.75 Thunderstorm Heavy Rain Fog/Mist OVC004 71.6 71.6 100% 30.03 0.0
21 03:15 Calm 0.15 Thunderstorm Heavy Rain Fog OVC004 69.8 69.8 100% 30.05 0.0
21 02:55 Vrbl 5 G 16 0.75 Thunderstorm in Vicinity Rain Fog/Mist BKN004 BKN027 OVC033 71.6 71.6 100% 30.05 0.0 0.17
21 02:35 Calm 6.00 Thunderstorm Light Rain Fog/Mist SCT040 BKN048 OVC055 73.4 73.4 100% 30.03 0.0
21 02:15 E 5 6.00 Thunderstorm in Vicinity Rain Fog/Mist FEW006 SCT045 BKN055 73.4 73.4 100% 30.03 0.0
21 01:55 N 5 5.00 Light Rain Fog/Mist FEW004 SCT032 OVC050 73.4 73.4 100% 30.03 0.0
21 01:35 NE 5 10.00 Overcast BKN050 OVC065 73.4 73.4 100% 30.03 0.0
21 01:15 N 5 10.00 Thunderstorm in Vicinity FEW050 OVC065 73.4 73.4 100% 30.03 0.0
21 00:55 NE 5 10.00 Overcast OVC065 73.4 73.4 100% 30.03 0.0
21 00:35 NE 3 10.00 Overcast BKN070 OVC100 73.4 73.4 100% 30.03 0.0
21 00:15 Calm 10.00 Mostly Cloudy FEW060 BKN100 75.2 73.4 94% 74 30.03 0.0
20 23:55 E 5 10.00 Mostly Cloudy FEW060 SCT080 BKN100 75.2 73.4 94% 74 30.02 0.0
20 23:35 E 5 9.00 Mostly Cloudy BKN065 BKN080 BKN110 73.4 73.4 100% 30.03 0.0
20 22:55 E 5 6.00 Unknown Precip Fog/Mist FEW065 SCT080 OVC110 77 75.2 94% 78 30.02 0.0
20 22:35 E 6 10.00 Overcast BKN070 OVC080 77 75.2 94% 78 30.03 0.0
20 22:15 E 5 10.00 Overcast OVC075 77 75.2 94% 78 30.04 0.0
20 21:55 E 6 10.00 Overcast OVC070 77 75.2 94% 78 30.04 0.0
20 21:35 NE 3 10.00 Overcast BKN070 OVC080 77 75.2 94% 78 30.03 0.0
20 21:15 NE 5 10.00 Overcast BKN070 OVC080 77 75.2 94% 78 30.02 0.0
20 20:55 NE 5 10.00 Overcast FEW044 BKN070 OVC080 78.8 75.2 89% 82 30.01 0.0
20 20:35 NE 3 10.00 Overcast OVC070 78.8 75.2 89% 82 30.01 0.0
20 20:15 Calm 10.00 Overcast OVC070 80.6 75.2 84% 86 30 0.0
20 19:55 Calm 10.00 Overcast OVC070 80.6 75.2 84% 86 30.01 0.0
20 19:35 Calm 10.00 Overcast OVC075 80.6 75.2 84% 86 30 0.0
20 19:15 E 5 10.00 Overcast OVC075 82.4 75.2 79% 89 30 0.0
20 18:55 E 3 10.00 Mostly Cloudy SCT075 BKN085 82.4 73.4 74% 88 30 0.0
20 18:35 SE 6 10.00 Fair CLR 82.4 73.4 74% 88 30 0.0
20 18:15 SE 5 10.00 Fair CLR 84.2 73.4 70% 91 30 0.0
20 17:55 SW 3 10.00 Fair CLR 84.2 73.4 70% 91 30.01 0.0
20 17:35 Calm 10.00 A Few Clouds FEW040 84.2 73.4 70% 91 30.01 0.0
20 17:15 Calm 10.00 Mostly Cloudy BKN039 86 73.4 66% 93 30.02 0.0
20 16:55 Calm 10.00 Fair CLR 84.2 73.4 70% 91 30.02 0.0
20 16:35 Calm 10.00 Fair CLR 84.2 73.4 70% 91 30.02 0.0
20 16:15 Vrbl 5 10.00 Fair CLR 84.2 73.4 70% 91 30.02 0.0
20 15:55 SE 6 10.00 Fair CLR 84.2 73.4 70% 91 30.03 0.0
20 15:35 S 5 10.00 Fair CLR 82.4 71.6 70% 87 30.03 0.0
20 15:15 S 3 9.00 Fair CLR 82.4 71.6 70% 87 30.03 0.0
20 14:55 SW 5 10.00 Fair CLR 82.4 71.6 70% 87 30.04 0.0
20 14:15 SW 8 10.00 Fair CLR 82.4 71.6 70% 87 30.04 0.0
20 13:55 Vrbl 6 10.00 Fair CLR 82.4 71.6 70% 87 30.04 0.0
20 13:35 S 8 10.00 Fair CLR 82.4 71.6 70% 87 30.05 0.0
20 13:15 S 8 10.00 Fair CLR 82.4 73.4 74% 88 30.05 0.0
20 12:55 S 9 10.00 Fair CLR 80.6 71.6 74% 85 30.05 0.0
20 12:35 SE 8 10.00 Fair CLR 80.6 71.6 74% 85 30.05 0.0
20 12:15 S 7 10.00 Fair CLR 78.8 71.6 79% 82 30.07 0.0
20 11:55 S 6 G 13 10.00 Fair CLR 80.6 71.6 74% 85 30.08 0.0
20 11:35 S 9 10.00 Fair CLR 80.6 71.6 74% 85 30.08 0.0
20 11:15 S 7 10.00 Fair CLR 78.8 71.6 79% 82 30.09 0.0
20 10:55 SW 10 10.00 Fair CLR 80.6 71.6 74% 85 30.09 0.0
20 10:35 SW 10 10.00 Fair CLR 78.8 69.8 74% 81 30.09 0.0
20 10:15 SW 9 G 17 10.00 Fair CLR 78.8 69.8 74% 81 30.09 0.0
20 09:55 S 10 10.00 Fair CLR 78.8 69.8 74% 81 30.09 0.0
20 09:35 S 8 10.00 Fair CLR 75.2 69.8 83% 75 30.09 0.0
20 09:15 S 9 10.00 Fair CLR 75.2 69.8 83% 75 30.09 0.0
20 08:55 S 10 10.00 Fair CLR 71.6 69.8 94% 30.09 0.0
20 08:35 S 5 10.00 Fair CLR 69.8 69.8 100% 30.09 0.0
20 08:15 SE 3 10.00 Fair CLR 68 68 100% 30.08 0.0
20 07:55 SE 5 10.00 Fair CLR 68 68 100% 30.08 0.0
20 07:35 SE 6 10.00 Fair CLR 66.2 66.2 100% 30.07 0.0
20 07:15 SE 6 10.00 Fair CLR 66.2 66.2 100% 30.07 0.0
20 06:55 SE 5 10.00 Fair CLR 66.2 66.2 100% 30.07 0.0
20 06:35 SE 6 10.00 Fair CLR 66.2 66.2 100% 30.06 0.0
20 06:15 SE 7 10.00 Fair CLR 66.2 66.2 100% 30.05 0.0
20 05:55 SE 6 10.00 Fair CLR 66.2 66.2 100% 30.05 0.0
20 05:35 SE 6 10.00 Fair CLR 66.2 66.2 100% 30.05 0.0
20 05:15 SE 7 10.00 Fair CLR 66.2 66.2 100% 30.05 0.0
20 04:35 E 5 10.00 Fair CLR 66.2 66.2 100% 30.05 0.0
20 04:15 Calm 10.00 Fair CLR 66.2 66.2 100% 30.05 0.0
20 03:55 E 6 9.00 Fair CLR 66.2 66.2 100% 30.04 0.0
20 03:35 SE 5 10.00 Fair CLR 66.2 66.2 100% 30.04 0.0
20 03:15 SE 3 10.00 Fair CLR 66.2 66.2 100% 30.03 0.0
20 02:55 Calm 10.00 Fair CLR 68 66.2 94% 30.04 0.0
20 02:35 E 7 10.00 Fair CLR 69.8 66.2 88% 30.04 0.0
20 02:15 E 8 10.00 Fair CLR 69.8 66.2 88% 30.03 0.0
20 01:55 E 7 10.00 Fair CLR 69.8 66.2 88% 30.02 0.0
20 01:35 E 6 10.00 Fair CLR 68 68 100% 30.03 0.0
20 01:15 E 7 10.00 Fair CLR 69.8 68 94% 30.04 0.0
20 00:55 E 7 10.00 Fair CLR 69.8 66.2 88% 30.04 0.0
20 00:35 E 9 10.00 Fair CLR 71.6 66.2 83% 30.04 0.0
20 00:15 E 10 10.00 Fair CLR 71.6 66.2 83% 30.03 0.0
19 23:55 E 10 10.00 Fair CLR 73.4 66.2 78% 30.03 0.0
19 23:35 E 9 10.00 Fair CLR 73.4 66.2 78% 30.04 0.0
19 23:15 E 8 10.00 Fair CLR 71.6 66.2 83% 30.04 0.0
19 22:55 NE 6 10.00 Fair CLR 71.6 66.2 83% 30.05 0.0
19 22:35 E 6 10.00 Fair CLR 71.6 66.2 83% 30.05 0.0
19 22:15 E 7 10.00 Fair CLR 71.6 66.2 83% 30.05 0.0
19 21:55 NE 6 10.00 Fair CLR 71.6 68 88% 30.05 0.0
19 21:35 NE 5 10.00 Fair CLR 71.6 69.8 94% 30.05 0.0
19 21:15 NE 5 10.00 Fair CLR 73.4 69.8 89% 30.05 0.0
19 20:55 NE 6 10.00 Fair CLR 73.4 69.8 89% 30.04 0.0
19 20:35 NE 3 10.00 Fair CLR 75.2 69.8 83% 75 30.04 0.0
19 20:15 NE 3 10.00 Fair CLR 78.8 68 70% 81 30.03 0.0
19 19:55 NE 5 10.00 Fair CLR 80.6 68 66% 83 30.03 0.0
19 19:15 NE 5 10.00 Fair CLR 82.4 64.4 55% 84 30.02 0.0
19 18:55 Calm 10.00 Fair CLR 82.4 64.4 55% 84 30.02 0.0
19 18:35 NE 6 10.00 Fair CLR 84.2 64.4 51% 86 30.02 0.0
19 18:15 NE 5 10.00 Fair CLR 86 64.4 49% 87 30.02 0.0
19 17:55 NE 6 10.00 Fair CLR 84.2 62.6 48% 85 30.02 0.0
19 17:35 NE 3 10.00 Fair CLR 84.2 64.4 51% 86 30.02 0.0
19 17:15 Calm 10.00 Fair CLR 84.2 64.4 51% 86 30.03 0.0
19 16:55 NW 5 10.00 Fair CLR 84.2 62.6 48% 85 30.04 0.0
19 16:35 Vrbl 5 10.00 Fair CLR 84.2 66.2 55% 87 30.04 0.0
19 16:15 N 3 10.00 Fair CLR 84.2 66.2 55% 87 30.05 0.0
19 15:55 Vrbl 5 G 13 10.00 Fair CLR 84.2 66.2 55% 87 30.05 0.0
19 15:35 Calm 10.00 Fair CLR 84.2 64.4 51% 86 30.05 0.0
19 15:15 NE 6 10.00 Fair CLR 84.2 66.2 55% 87 30.07 0.0
19 14:55 Calm 10.00 Fair CLR 84.2 66.2 55% 87 30.08 0.0
19 14:35 Calm 10.00 Fair CLR 82.4 62.6 51% 83 30.08 0.0
19 14:15 Vrbl 5 10.00 Fair CLR 82.4 64.4 55% 84 30.09 0.0
19 13:55 Vrbl 6 10.00 Fair CLR 82.4 64.4 55% 84 30.1 0.0
19 13:35 Calm 10.00 Fair CLR 82.4 64.4 55% 84 30.1 0.0
19 13:15 Calm 10.00 Fair CLR 80.6 64.4 58% 82 30.11 0.0
19 12:55 Calm 10.00 Fair CLR 82.4 64.4 55% 84 30.12 0.0
19 12:35 SE 7 10.00 Fair CLR 80.6 64.4 58% 82 30.11 0.0
19 12:15 Vrbl 5 10.00 Fair CLR 80.6 62.6 54% 82 30.12 0.0
19 11:55 Vrbl 3 9.00 Fair CLR 80.6 64.4 58% 82 30.13 0.0
19 11:35 Calm 6.00 Fair with Haze CLR 78.8 66.2 65% 81 30.13 0.0
19 11:15 Calm 10.00 Fair CLR 78.8 68 70% 81 30.13 0.0
19 10:55 Calm 10.00 Fair CLR 77 66.2 69% 79 30.13 0.0
19 10:35 Calm 10.00 Fair CLR 77 68 74% 79 30.14 0.0
19 10:15 Vrbl 3 10.00 Fair CLR 75.2 69.8 83% 75 30.14 0.0
19 09:55 E 5 10.00 Fair CLR 75.2 68 78% 76 30.15 0.0
19 09:35 E 5 10.00 Fair CLR 73.4 68 83% 30.14 0.0
19 09:15 Vrbl 3 10.00 Fair CLR 73.4 68 83% 30.15 0.0
19 08:55 NE 6 10.00 Fair CLR 71.6 68 88% 30.15 0.0
19 08:35 NE 7 10.00 Fair CLR 69.8 68 94% 30.15 0.0
19 08:15 NE 6 10.00 Fair CLR 68 68 100% 30.15 0.0
19 07:55 NE 7 10.00 Fair CLR 66.2 66.2 100% 30.14 0.0
19 07:35 NE 3 10.00 Fair CLR 64.4 64.4 100% 30.15 0.0
19 07:15 Calm 10.00 Fair CLR 62.6 62.6 100% 30.14 0.0
19 06:55 NE 3 10.00 Fair CLR 60.8 60.8 100% 30.14 0.0
19 06:35 NE 5 10.00 Fair CLR 59 59 100% 30.13 0.0
19 06:15 NE 6 10.00 Fair CLR 59 59 100% 30.13 0.0
19 05:55 NE 5 10.00 Fair CLR 59 59 100% 30.13 0.0
19 05:35 NE 5 10.00 Fair CLR 60.8 60.8 100% 30.13 0.0
19 05:15 NE 5 10.00 Fair CLR 60.8 60.8 100% 30.13 0.0
19 04:55 NE 6 10.00 Fair CLR 60.8 60.8 100% 30.12 0.0
19 04:35 NE 5 10.00 Fair CLR 60.8 60.8 100% 30.12 0.0
19 04:15 NE 5 10.00 Fair CLR 62.6 62.6 100% 30.12 0.0
19 03:55 NE 3 10.00 Fair CLR 60.8 60.8 100% 30.12 0.0
19 03:35 Calm 10.00 Fair CLR 60.8 60.8 100% 30.12 0.0
19 03:15 NE 3 10.00 Fair CLR 60.8 60.8 100% 30.12 0.0
19 02:55 NE 5 10.00 Fair CLR 62.6 62.6 100% 30.12 0.0
19 02:35 NE 3 10.00 Fair CLR 62.6 62.6 100% 30.12 0.0
19 02:15 NE 3 10.00 Fair CLR 62.6 62.6 100% 30.14 0.0
19 01:55 NE 5 10.00 Fair CLR 62.6 62.6 100% 30.14 0.0
19 01:35 NE 5 10.00 Fair CLR 62.6 62.6 100% 30.14 0.0
19 01:15 NE 5 10.00 Fair CLR 64.4 64.4 100% 30.15 0.0
19 00:55 NE 5 10.00 Fair CLR 64.4 64.4 100% 30.15 0.0
19 00:35 E 5 10.00 Fair CLR 64.4 64.4 100% 30.15 0.0
19 00:15 NE 5 10.00 Fair CLR 66.2 64.4 94% 30.14 0.0
18 23:55 NE 6 10.00 Fair CLR 68 64.4 88% 30.14 0.0
18 23:35 E 7 10.00 Fair CLR 68 64.4 88% 30.13 0.0
18 23:15 E 7 10.00 Fair CLR 69.8 64.4 83% 30.13 0.0
18 22:55 NE 7 10.00 Fair CLR 69.8 64.4 83% 30.13 0.0
18 22:35 E 6 10.00 Fair CLR 69.8 64.4 83% 30.12 0.0
18 22:15 E 7 10.00 Fair CLR 71.6 64.4 78% 30.12 0.0
18 21:55 NE 8 10.00 Fair CLR 73.4 62.6 69% 30.11 0.0
18 21:35 NE 7 10.00 Fair CLR 71.6 64.4 78% 30.1 0.0
18 21:15 NE 6 10.00 Fair CLR 71.6 66.2 83% 30.09 0.0
18 20:55 NE 5 10.00 Fair CLR 73.4 66.2 78% 30.09 0.0
18 20:35 NE 6 10.00 Fair CLR 75.2 66.2 74% 77 30.08 0.0
18 20:15 NE 6 10.00 Fair CLR 77 64.4 65% 79 30.08 0.0
18 19:55 NE 6 10.00 Fair CLR 78.8 64.4 61% 81 30.07 0.0
18 19:35 NE 8 10.00 Fair CLR 80.6 62.6 54% 82 30.08 0.0
18 19:15 NE 8 10.00 Fair CLR 82.4 60.8 48% 83 30.07 0.0
18 18:55 NE 8 G 14 10.00 Fair CLR 82.4 62.6 51% 83 30.07 0.0
18 18:35 NE 12 10.00 Fair CLR 84.2 62.6 48% 85 30.08 0.0
18 18:15 NE 9 10.00 Fair CLR 84.2 62.6 48% 85 30.08 0.0
18 17:55 NE 9 10.00 Fair CLR 84.2 60.8 45% 84 30.08 0.0
18 17:35 N 6 G 13 10.00 Fair CLR 84.2 62.6 48% 85 30.09 0.0
18 17:15 N 9 10.00 A Few Clouds FEW065 84.2 62.6 48% 85 30.1 0.0
18 16:55 NE 10 10.00 Partly Cloudy SCT065 86 62.6 46% 87 30.1 0.0
18 16:35 NE 9 G 16 8.00 A Few Clouds FEW065 86 60.8 43% 86 30.11 0.0
18 16:15 NE 8 G 15 10.00 A Few Clouds FEW065 86 62.6 46% 87 30.11 0.0
18 15:55 NE 8 G 15 10.00 Fair CLR 86 62.6 46% 87 30.11 0.0
18 15:35 NE 9 G 15 10.00 A Few Clouds FEW060 84.2 64.4 51% 86 30.11 0.0
18 15:15 NE 10 10.00 A Few Clouds FEW060 86 62.6 46% 87 30.13 0.0
18 14:55 E 7 G 14 10.00 Fair CLR 86 60.8 43% 86 30.13 0.0
18 14:35 Vrbl 7 G 16 10.00 Fair CLR 84.2 60.8 45% 84 30.13 0.0
18 14:15 N 9 G 15 10.00 Fair CLR 84.2 62.6 48% 85 30.14 0.0
18 13:55 NE 8 G 15 10.00 Fair CLR 84.2 64.4 51% 86 30.14 0.0
18 13:35 E 9 10.00 Fair CLR 84.2 64.4 51% 86 30.15 0.0
18 13:15 NE 10 G 16 10.00 Fair CLR 84.2 62.6 48% 85 30.15 0.0
18 12:55 NE 9 G 15 10.00 Fair CLR 82.4 64.4 55% 84 30.15 0.0
18 12:35 NE 8 G 15 10.00 Fair CLR 82.4 69.8 66% 86 30.16 0.0
18 12:15 NE 10 6.00 Fair with Haze CLR 82.4 68 62% 85 30.16 0.0
18 11:55 NE 9 10.00 Fair CLR 82.4 69.8 66% 86 30.16 0.0
18 11:35 NE 10 10.00 Fair CLR 82.4 71.6 70% 87 30.16 0.0
18 11:15 NE 8 G 16 10.00 Fair CLR 82.4 73.4 74% 88 30.16 0.0
18 10:55 NE 8 10.00 Fair CLR 80.6 73.4 79% 85 30.16 0.0
18 10:35 E 10 10.00 Fair CLR 80.6 71.6 74% 85 30.16 0.0
18 10:15 NE 10 8.00 Fair CLR 78.8 73.4 84% 82 30.17 0.0
18 09:55 NE 9 10.00 Fair CLR 78.8 73.4 84% 82 30.17 0.0
18 09:35 NE 9 10.00 Fair CLR 77 71.6 83% 78 30.16 0.0
18 09:15 E 7 10.00 Fair CLR 77 71.6 83% 78 30.17 0.0
18 08:55 NE 9 10.00 Fair CLR 75.2 71.6 89% 75 30.16 0.0
Date Time (cdt) Wind (mph) Vis. (mi.) Weather Sky Cond. Air Dwpt Max. Min. Relative Humidity Wind Chill (°F) Heat Index (°F) altimeter (in) sea level (mb) 1 hr 3 hr 6 hr
6 hour
Temperature (ºF) Pressure Precipitation (in)